{"data":{"norad_id":66870,"intl_designator":"2025-281Y","name":"STARLINK-36114","alt_names":[],"object_type":"PAYLOAD","status":"ACTIVE","operator":null,"country":"US","launch_date":"2025-12-02","launch_site_code":"AFETR","launch_vehicle":null,"mission":null,"orbit_class":"UNKNOWN","rcs_meters":null,"size_class":null,"mass_kg":null,"dimensions":null,"purposes":["comms"],"wikipedia_slug":null,"has_3d_model":false,"image_url":null,"decayed_at":null,"tle_current":{"epoch":"2026-09-20T20:50:31.663392Z","epoch_age_seconds":52271,"freshness":"FRESH","line1":"1 66870U 25281Y   26263.86842203  .00012537  00000+0  46429-3 0  9992","line2":"2 66870  43.0031 321.3737 0001623 270.7559  89.3107 15.27583808 46020","mean_motion":15.27583808,"eccentricity":0.0001623,"inclination_deg":43.0031,"raan_deg":321.3737,"arg_perigee_deg":270.7559,"mean_anomaly_deg":89.3107,"bstar":0.00046429,"rev_number":4602,"period_min":94.266513723089,"perigee_km":481.92412488866,"apogee_km":484.15126219418,"semimajor_km":6861.1746935414,"source":"CELESTRAK","updated_at":"2026-09-21T09:00:36.030305Z"}}}